QPF
0.00 0.00 0.00 0.00 0.00 0.00 0.00 0.00 0.00 0.00 0.00 0.00 0.00 0.00 0.00 0.00 0.00 0.00 0.00 0.00 0.00 0.00 0.00 0.00 0.00 0.00 0.00 0.00 0.00 0.00 0.00 0.00 0.00 0.00 0.00 0.00 0.00 0.00 0.00 0.01 0.05 0.11 0.09
0.00 0.00 0.00 0.00 0.00 0.00 0.00 0.00 0.00 0.00 0.00 0.00 0.00 0.00 0.00 0.00 0.00 0.00 0.00 0.00 0.00 0.00 0.00 0.00 0.00 0.00 0.00 0.00 0.00 0.00 0.00 0.00 0.00 0.00 0.00 0.00 0.00 0.00 0.00 0.00 0.02 0.05 0.09
0.00 0.00 0.00 0.00 0.00 0.00 0.00 0.00 0.00 0.00 0.00 0.00 0.00 0.00 0.00 0.00 0.00 0.00 0.00 0.00 0.00 0.00 0.00 0.00 0.00 0.00 0.00 0.00 0.00 0.00 0.00 0.00 0.00 0.00 0.00 0.00 0.00 0.00 0.01 0.00 0.00 0.02 0.06
0.00 0.00 0.00 0.00 0.00 0.00 0.00 0.00 0.00 0.00 0.00 0.00 0.00 0.00 0.00 0.00 0.00 0.00 0.00 0.00 0.00 0.00 0.00 0.00 0.00 0.00 0.00 0.00 0.00 0.00 0.00 0.00 0.00 0.00 0.00 0.00 0.00 0.00 0.00 0.00 0.00 0.00 0.01
0.00 0.00 0.00 0.00 0.00 0.00 0.00 0.00 0.00 0.00 0.00 0.00 0.00 0.00 0.00 0.00 0.00 0.00 0.00 0.00 0.00 0.00 0.00 0.00 0.00 0.00 0.00 0.00 0.00 0.00 0.00 0.00 0.00 0.00 0.00 0.00 0.00 0.00 0.00 0.00 0.00 0.00 0.00
0.00 0.00 0.00 0.00 0.00 0.00 0.00 0.00 0.00 0.00 0.00 0.00 0.00 0.00 0.00 0.00 0.00 0.00 0.00 0.00 0.00 0.00 0.00 0.00 0.00 0.00 0.00 0.00 0.00 0.00 0.00 0.00 0.00 0.00 0.00 0.00 0.00 0.00 0.00 0.00 0.00 0.00 0.00
0.00 0.00 0.00 0.00 0.00 0.00 0.00 0.00 0.00 0.00 0.00 0.00 0.00 0.00 0.00 0.00 0.00 0.00 0.00 0.00 0.00 0.00 0.00 0.00 0.00 0.00 0.00 0.00 0.00 0.00 0.00 0.00 0.00 0.00 0.00 0.00 0.00 0.00 0.00 0.00 0.00 0.00 0.00
0.00 0.00 0.00 0.00 0.00 0.00 0.00 0.00 0.00 0.00 0.00 0.00 0.00 0.00 0.00 0.00 0.00 0.00 0.00 0.00 0.00 0.00 0.00 0.00 0.00 0.00 0.00 0.00 0.00 0.00 0.00 0.00 0.00 0.00 0.00 0.00 0.00 0.00 0.00 0.00 0.00 0.00 0.00
0.00 0.00 0.00 0.00 0.00 0.00 0.00 0.00 0.00 0.00 0.00 0.00 0.00 0.00 0.00 0.00 0.00 0.00 0.00 0.00 0.00 0.00 0.00 0.00 0.00 0.00 0.00 0.00 0.00 0.00 0.00 0.00 0.00 0.00 0.00 0.00 0.00 0.00 0.00 0.00 0.00 0.00 0.00
0.00 0.00 0.00 0.00 0.00 0.00 0.00 0.00 0.00 0.00 0.00 0.00 0.00 0.00 0.00 0.00 0.00 0.00 0.00 0.00 0.00 0.00 0.00 0.00 0.00 0.00 0.00 0.00 0.00 0.00 0.00 0.00 0.00 0.00 0.00 0.00 0.00 0.00 0.00 0.00 0.00 0.00 0.00
0.00 0.00 0.00 0.00 0.00 0.00 0.00 0.00 0.00 0.00 0.00 0.00 0.00 0.00 0.00 0.00 0.00 0.00 0.00 0.00 0.00 0.00 0.00 0.00 0.00 0.00 0.00 0.00 0.00 0.00 0.00 0.00 0.00 0.00 0.00 0.00 0.00 0.00 0.00 0.00 0.00 0.00 0.00
0.00 0.00 0.00 0.00 0.00 0.00 0.00 0.00 0.00 0.00 0.00 0.00 0.00 0.00 0.00 0.00 0.00 0.00 0.00 0.00 0.00 0.00 0.00 0.00 0.00 0.00 0.00 0.00 0.00 0.00 0.00 0.00 0.00 0.00 0.00 0.00 0.00 0.00 0.00 0.00 0.00 0.00 0.00
0.00 0.00 0.00 0.00 0.00 0.00 0.00 0.00 0.00 0.00 0.00 0.00 0.00 0.00 0.00 0.00 0.00 0.00 0.00 0.00 0.00 0.00 0.00 0.00 0.00 0.00 0.00 0.00 0.00 0.00 0.00 0.00 0.00 0.00 0.00 0.00 0.00 0.00 0.00 0.00 0.00 0.00 0.00
0.00 0.00 0.00 0.00 0.00 0.00 0.00 0.00 0.00 0.00 0.00 0.00 0.00 0.00 0.00 0.00 0.00 0.00 0.00 0.00 0.00 0.00 0.00 0.00 0.00 0.00 0.00 0.00 0.00 0.00 0.00 0.00 0.00 0.00 0.00 0.00 0.00 0.00 0.00 0.00 0.00 0.00 0.00
0.00 0.00 0.00 0.00 0.00 0.00 0.00 0.00 0.00 0.00 0.00 0.00 0.00 0.00 0.00 0.00 0.00 0.00 0.00 0.00 0.00 0.00 0.00 0.00 0.00 0.00 0.00 0.00 0.00 0.00 0.00 0.00 0.00 0.00 0.00 0.00 0.00 0.00 0.00 0.00 0.00 0.00 0.00
0.00 0.00 0.00 0.00 0.00 0.00 0.00 0.00 0.00 0.00 0.00 0.00 0.00 0.00 0.00 0.00 0.00 0.00 0.00 0.00 0.00 0.00 0.00 0.00 0.00 0.00 0.00 0.00 0.00 0.00 0.00 0.00 0.00 0.00 0.00 0.00 0.00 0.00 0.00 0.00 0.00 0.00 0.00
0.00 0.00 0.00 0.00 0.00 0.00 0.00 0.00 0.00 0.00 0.00 0.00 0.00 0.00 0.00 0.00 0.00 0.00 0.00 0.00 0.00 0.00 0.00 0.00 0.00 0.00 0.00 0.00 0.00 0.00 0.00 0.00 0.00 0.00 0.00 0.00 0.00 0.00 0.00 0.00 0.00 0.00 0.00
0.00 0.00 0.00 0.00 0.00 0.00 0.00 0.00 0.00 0.00 0.00 0.00 0.00 0.00 0.00 0.00 0.00 0.00 0.00 0.00 0.00 0.00 0.00 0.00 0.00 0.00 0.00 0.00 0.00 0.00 0.00 0.00 0.00 0.00 0.00 0.00 0.00 0.00 0.00 0.00 0.00 0.00 0.00
0.00 0.00 0.00 0.00 0.00 0.00 0.00 0.00 0.00 0.00 0.00 0.00 0.00 0.00 0.00 0.00 0.00 0.00 0.00 0.00 0.00 0.00 0.00 0.00 0.00 0.00 0.00 0.00 0.00 0.00 0.00 0.00 0.00 0.00 0.00 0.00 0.00 0.00 0.00 0.00 0.00 0.00 0.00
0.00 0.00 0.00 0.00 0.00 0.00 0.00 0.00 0.00 0.00 0.00 0.00 0.00 0.00 0.00 0.00 0.00 0.00 0.00 0.00 0.00 0.00 0.00 0.00 0.00 0.00 0.00 0.00 0.00 0.00 0.00 0.00 0.00 0.00 0.00 0.00 0.00 0.00 0.00 0.00 0.00 0.00 0.00
0.00 0.00 0.00 0.00 0.00 0.00 0.00 0.00 0.00 0.00 0.00 0.00 0.00 0.00 0.00 0.00 0.00 0.00 0.00 0.00 0.00 0.00 0.00 0.00 0.00 0.00 0.00 0.00 0.00 0.00 0.00 0.00 0.00 0.00 0.00 0.00 0.00 0.00 0.00 0.00 0.00 0.00 0.00
0.00 0.00 0.00 0.00 0.00 0.00 0.00 0.00 0.00 0.00 0.00 0.00 0.00 0.00 0.00 0.00 0.00 0.00 0.00 0.00 0.00 0.00 0.00 0.00 0.00 0.00 0.00 0.00 0.00 0.00 0.00 0.00 0.00 0.00 0.00 0.00 0.00 0.00 0.00 0.00 0.00 0.00 0.00
0.00 0.00 0.00 0.00 0.00 0.00 0.00 0.00 0.00 0.00 0.00 0.00 0.00 0.00 0.00 0.00 0.00 0.00 0.00 0.00 0.00 0.00 0.00 0.00 0.00 0.00 0.00 0.00 0.00 0.00 0.00 0.00 0.00 0.00 0.00 0.00 0.00 0.00 0.00 0.00 0.00 0.00 0.00
0.00 0.00 0.00 0.00 0.00 0.00 0.00 0.00 0.00 0.00 0.00 0.00 0.00 0.00 0.00 0.00 0.00 0.00 0.00 0.00 0.00 0.00 0.00 0.00 0.00 0.00 0.00 0.00 0.00 0.00 0.00 0.00 0.00 0.00 0.00 0.00 0.00 0.00 0.00 0.00 0.00 0.00 0.00
0.00 0.00 0.00 0.00 0.00 0.00 0.00 0.00 0.00 0.00 0.00 0.00 0.00 0.00 0.00 0.00 0.00 0.00 0.00 0.00 0.00 0.00 0.00 0.00 0.00 0.00 0.00 0.00 0.00 0.00 0.00 0.00 0.00 0.01 0.01 0.01 0.00 0.00 0.00 0.00 0.00 0.00 0.00
0.00 0.00 0.00 0.00 0.00 0.00 0.00 0.00 0.00 0.00 0.00 0.00 0.00 0.00 0.00 0.00 0.00 0.00 0.00 0.00 0.00 0.00 0.00 0.00 0.00 0.00 0.00 0.00 0.00 0.00 0.01 0.01 0.02 0.04 0.03 0.01 0.01 0.00 0.00 0.00 0.00 0.00 0.00
MSLP
1019.80 1021.06 1022.29 1023.47 1024.59 1025.33 1025.99 1026.61 1027.25 1027.81 1028.21 1028.36 1028.31 1028.37 1028.69 1029.07 1029.21 1029.54 1029.59 1029.25 1029.18 1028.96 1028.55 1027.80 1027.89 1027.38 1026.83 1026.69 1026.30 1025.90 1025.39 1024.78 1024.73 1023.91 1023.67 1023.55 1023.73 1023.80 1023.93 1023.86 1023.97 1023.88 1024.03
1018.89 1020.21 1021.60 1022.89 1024.01 1024.82 1025.63 1026.28 1026.89 1027.45 1027.76 1027.92 1028.13 1028.20 1028.65 1029.24 1029.43 1029.69 1029.91 1029.88 1029.60 1029.30 1028.96 1028.82 1028.43 1027.97 1027.61 1027.25 1026.95 1026.52 1026.12 1026.03 1026.11 1025.77 1025.16 1024.16 1023.80 1024.41 1024.66 1024.58 1024.63 1024.67 1024.47
1017.68 1019.08 1020.78 1022.09 1023.40 1024.21 1025.08 1025.85 1026.55 1027.14 1027.56 1027.90 1028.50 1028.75 1029.07 1029.31 1029.19 1029.32 1029.54 1029.74 1029.76 1029.76 1029.72 1029.36 1028.88 1028.58 1028.27 1028.06 1027.84 1027.84 1027.49 1027.20 1026.94 1026.78 1026.49 1025.86 1025.80 1025.52 1024.82 1025.05 1025.23 1025.14 1025.10
1016.79 1017.97 1019.83 1021.37 1022.67 1023.63 1024.63 1025.45 1026.19 1026.88 1027.43 1027.96 1028.21 1028.35 1028.20 1028.41 1028.89 1029.27 1029.66 1029.92 1030.00 1030.08 1029.93 1029.63 1029.42 1029.28 1029.06 1028.86 1028.53 1028.32 1028.01 1027.75 1027.66 1027.11 1027.48 1027.58 1027.69 1026.87 1025.84 1025.39 1025.71 1025.54 1025.57
1016.06 1017.31 1019.00 1020.83 1022.12 1023.25 1024.12 1025.05 1025.84 1026.52 1027.07 1027.67 1027.84 1028.06 1028.09 1028.56 1029.04 1029.32 1029.55 1029.77 1029.96 1029.98 1029.98 1029.98 1029.97 1029.83 1029.61 1029.43 1029.24 1028.93 1028.57 1028.44 1028.43 1028.62 1028.75 1028.37 1028.17 1027.76 1027.31 1026.58 1026.50 1025.93 1025.72
1016.19 1017.36 1018.99 1020.66 1021.96 1023.08 1024.04 1024.78 1025.34 1026.00 1026.65 1027.10 1027.56 1027.83 1028.12 1028.61 1028.94 1029.21 1029.36 1029.54 1029.74 1029.97 1030.20 1030.19 1030.20 1030.17 1030.05 1029.88 1029.65 1029.38 1029.23 1029.01 1028.97 1028.96 1029.22 1029.17 1029.04 1029.02 1028.62 1028.21 1027.77 1027.22 1025.98
1016.86 1018.02 1019.23 1020.60 1021.93 1022.82 1023.75 1024.59 1025.18 1025.63 1026.16 1026.76 1027.15 1027.51 1027.88 1028.37 1028.66 1028.97 1029.13 1029.48 1029.70 1029.94 1030.38 1030.29 1030.35 1030.33 1030.32 1030.19 1029.95 1029.80 1029.66 1029.59 1029.46 1029.51 1029.52 1029.71 1029.97 1030.08 1029.78 1029.33 1028.90 1028.26 1027.12
1017.85 1018.86 1019.79 1020.81 1022.01 1022.93 1023.70 1024.41 1024.98 1025.50 1025.96 1026.43 1026.82 1027.29 1027.70 1028.07 1028.34 1028.63 1028.91 1029.18 1029.49 1029.88 1030.34 1030.49 1030.52 1030.51 1030.42 1030.30 1030.17 1030.11 1030.05 1029.99 1030.06 1030.10 1030.04 1030.04 1030.23 1030.50 1030.55 1030.37 1030.02 1029.00 1027.91
1017.76 1019.14 1020.22 1021.06 1022.26 1023.08 1023.62 1024.10 1024.56 1025.05 1025.57 1025.96 1026.44 1026.93 1027.43 1027.87 1028.25 1028.49 1028.83 1029.23 1029.55 1030.04 1030.38 1030.52 1030.58 1030.63 1030.61 1030.57 1030.47 1030.50 1030.49 1030.45 1030.59 1030.64 1030.54 1030.48 1030.64 1030.58 1030.48 1030.45 1030.29 1030.29 1029.52
1017.41 1018.76 1020.22 1021.17 1022.13 1022.92 1023.57 1024.14 1024.35 1024.48 1025.06 1025.64 1026.07 1026.58 1027.07 1027.53 1027.95 1028.47 1028.84 1029.13 1029.55 1030.02 1030.35 1030.53 1030.62 1030.78 1030.85 1030.88 1030.77 1030.88 1031.02 1030.88 1031.11 1031.05 1030.93 1030.89 1030.91 1030.90 1030.70 1030.66 1030.38 1030.61 1030.37
1017.37 1018.32 1019.41 1020.72 1021.69 1022.59 1023.34 1024.05 1024.55 1024.65 1024.80 1025.33 1025.65 1026.08 1026.60 1027.08 1027.56 1028.03 1028.49 1028.86 1029.33 1029.81 1030.09 1030.29 1030.48 1030.64 1030.80 1030.99 1030.98 1031.07 1031.20 1031.17 1031.25 1031.32 1031.30 1031.26 1031.33 1031.20 1031.03 1030.94 1030.76 1030.74 1030.67
1017.34 1018.13 1018.85 1019.95 1020.93 1021.81 1022.65 1023.24 1023.98 1024.37 1024.50 1024.91 1025.52 1025.83 1026.20 1026.68 1027.16 1027.56 1028.00 1028.44 1028.88 1029.37 1029.69 1030.00 1030.22 1030.40 1030.62 1030.86 1030.97 1031.08 1031.23 1031.27 1031.33 1031.44 1031.49 1031.44 1031.34 1031.29 1031.25 1031.15 1031.03 1030.93 1030.72
1017.06 1017.91 1018.64 1019.12 1020.02 1020.88 1021.84 1022.49 1023.18 1023.79 1024.38 1024.66 1025.14 1025.60 1025.72 1026.15 1026.59 1026.99 1027.47 1028.03 1028.50 1028.92 1029.36 1029.72 1029.98 1030.14 1030.44 1030.72 1030.99 1031.04 1031.19 1031.24 1031.31 1031.36 1031.45 1031.47 1031.54 1031.45 1031.47 1031.31 1031.10 1030.91 1030.71
1016.70 1017.43 1018.12 1018.57 1019.16 1019.83 1020.64 1021.58 1022.35 1022.93 1023.55 1024.22 1024.54 1024.93 1025.17 1025.46 1025.88 1026.35 1026.82 1027.48 1028.08 1028.46 1028.83 1029.28 1029.54 1029.83 1030.14 1030.49 1030.74 1030.98 1031.00 1031.05 1031.10 1031.27 1031.40 1031.42 1031.52 1031.60 1031.67 1031.44 1031.19 1030.93 1030.76
1015.81 1016.45 1016.95 1017.57 1018.54 1019.14 1019.65 1020.46 1021.25 1022.03 1022.72 1023.49 1024.00 1023.93 1024.57 1025.07 1025.51 1025.87 1026.28 1026.80 1027.39 1027.86 1028.30 1028.72 1029.09 1029.44 1029.78 1030.02 1030.33 1030.53 1030.62 1030.70 1030.83 1031.05 1031.20 1031.30 1031.50 1031.95 1032.01 1031.71 1031.58 1031.42 1031.04
1014.57 1014.93 1015.78 1016.83 1017.45 1018.04 1018.58 1019.25 1020.01 1020.64 1021.63 1022.43 1022.76 1023.54 1024.05 1024.42 1024.73 1025.17 1025.64 1026.27 1026.78 1027.26 1027.71 1028.08 1028.45 1028.85 1029.22 1029.42 1029.78 1029.96 1030.19 1030.34 1030.47 1030.55 1030.63 1030.81 1031.20 1031.34 1031.41 1031.35 1031.43 1031.50 1031.30
1013.30 1014.11 1014.73 1015.35 1015.96 1016.58 1017.19 1017.89 1018.58 1019.84 1020.62 1021.31 1021.94 1022.50 1023.05 1023.53 1023.91 1024.51 1025.03 1025.35 1025.83 1026.49 1026.94 1027.43 1027.84 1028.16 1028.53 1028.96 1029.36 1029.68 1029.83 1029.92 1029.99 1030.12 1030.31 1030.45 1030.46 1030.88 1030.91 1030.74 1030.77 1030.78 1030.62
1012.95 1013.43 1013.92 1014.40 1014.82 1015.53 1016.46 1017.25 1018.13 1018.90 1019.77 1020.34 1020.93 1021.49 1022.04 1022.57 1023.25 1023.80 1024.10 1024.54 1025.03 1025.52 1026.04 1026.55 1027.02 1027.49 1027.76 1028.22 1028.78 1029.14 1029.55 1029.64 1029.59 1029.75 1030.03 1030.20 1030.25 1030.33 1030.46 1030.52 1030.43 1030.24 1030.02
1013.04 1013.37 1013.80 1014.17 1014.67 1015.40 1015.98 1016.80 1017.60 1018.28 1018.99 1019.39 1019.84 1020.54 1021.24 1021.95 1022.49 1022.87 1023.22 1023.81 1024.35 1024.79 1025.20 1025.76 1026.34 1026.77 1027.19 1027.63 1028.30 1028.75 1029.11 1029.07 1029.02 1029.16 1029.42 1029.76 1029.93 1029.87 1029.97 1030.12 1029.99 1029.70 1029.45
1015.04 1015.23 1015.28 1015.37 1015.54 1016.38 1016.58 1016.91 1017.40 1018.02 1018.69 1019.14 1019.66 1020.38 1021.08 1021.63 1022.09 1022.57 1023.01 1023.42 1023.84 1024.23 1024.83 1025.29 1025.70 1026.12 1026.64 1027.05 1027.70 1028.13 1028.52 1028.59 1028.72 1028.84 1028.98 1029.13 1029.59 1029.65 1029.68 1029.80 1029.70 1029.36 1029.15
1016.46 1016.63 1016.74 1016.96 1017.40 1017.31 1017.16 1017.51 1017.91 1018.39 1018.85 1019.32 1019.93 1020.49 1021.00 1021.43 1021.86 1022.48 1022.94 1023.37 1023.81 1024.15 1024.48 1025.00 1025.40 1025.79 1026.17 1026.61 1027.17 1027.65 1027.83 1027.95 1028.16 1028.24 1028.34 1028.31 1028.44 1028.82 1029.11 1029.28 1029.40 1029.16 1029.10
1017.19 1017.40 1017.70 1018.11 1018.36 1018.16 1017.97 1018.21 1019.01 1019.79 1020.07 1020.35 1020.76 1021.13 1021.33 1021.51 1021.90 1022.26 1022.63 1023.00 1023.37 1023.83 1024.21 1024.70 1025.24 1025.53 1025.93 1026.22 1026.57 1027.13 1027.25 1027.57 1027.81 1027.74 1027.73 1027.71 1027.81 1028.00 1028.21 1028.48 1028.57 1028.54 1028.58
1017.98 1018.14 1018.28 1018.64 1019.00 1019.11 1018.99 1019.01 1020.08 1020.47 1020.72 1020.94 1021.23 1021.62 1021.93 1022.34 1022.87 1023.06 1023.13 1023.36 1023.56 1023.75 1024.11 1024.44 1024.83 1025.18 1025.65 1026.03 1026.17 1026.52 1026.71 1027.02 1027.45 1027.31 1027.09 1027.14 1027.22 1027.52 1027.70 1027.82 1027.87 1027.89 1027.91
1018.84 1019.03 1019.11 1019.23 1019.48 1019.81 1020.02 1020.33 1020.70 1020.82 1021.09 1021.47 1021.80 1022.12 1022.30 1022.74 1023.02 1023.41 1023.61 1023.49 1023.77 1024.00 1024.21 1024.50 1024.72 1025.16 1025.62 1026.04 1026.41 1026.73 1026.95 1026.98 1026.99 1027.10 1026.94 1026.96 1027.02 1026.99 1027.05 1027.19 1027.24 1027.27 1027.10
1019.69 1019.89 1020.04 1020.37 1020.63 1020.78 1020.97 1021.26 1021.46 1021.43 1021.50 1021.75 1022.16 1022.57 1022.70 1023.10 1023.39 1023.48 1023.56 1023.71 1023.83 1023.88 1024.11 1024.34 1024.64 1024.90 1025.41 1025.70 1025.95 1026.32 1026.75 1027.06 1027.38 1027.54 1027.57 1027.28 1026.95 1026.71 1026.71 1026.64 1026.56 1026.39 1026.39
1020.25 1020.57 1020.74 1021.03 1021.43 1021.59 1021.92 1022.01 1022.01 1022.14 1022.45 1022.54 1022.44 1022.64 1023.14 1023.39 1023.65 1024.02 1024.22 1024.29 1024.51 1024.62 1024.83 1025.03 1025.14 1025.37 1025.64 1025.98 1026.03 1026.24 1026.34 1026.53 1026.75 1027.05 1027.09 1026.98 1026.78 1026.29 1026.06 1026.19 1025.95 1025.90 1025.73
Thickness
5668 5659 5650 5643 5635 5631 5627 5624 5620 5617 5614 5613 5614 5613 5611 5608 5607 5604 5604 5605 5604 5605 5607 5613 5610 5613 5618 5618 5620 5621 5624 5628 5627 5635 5635 5634 5632 5630 5627 5625 5622 5621 5619
5668 5659 5650 5641 5633 5629 5624 5621 5618 5613 5611 5609 5608 5607 5604 5600 5599 5597 5595 5595 5596 5597 5598 5598 5600 5604 5606 5610 5612 5614 5616 5615 5612 5612 5616 5627 5628 5619 5615 5614 5611 5609 5607
5670 5663 5650 5641 5632 5627 5621 5618 5613 5609 5605 5603 5598 5596 5594 5592 5593 5592 5590 5589 5588 5588 5586 5588 5591 5593 5595 5597 5597 5597 5598 5599 5601 5600 5602 5609 5605 5601 5608 5604 5600 5599 5596
5673 5666 5651 5640 5631 5625 5620 5613 5608 5603 5599 5595 5593 5592 5594 5593 5587 5583 5580 5578 5577 5577 5578 5579 5580 5581 5582 5583 5586 5587 5589 5590 5589 5593 5587 5584 5581 5585 5594 5596 5588 5588 5585
5672 5663 5652 5638 5629 5622 5616 5609 5603 5598 5593 5589 5587 5586 5586 5581 5577 5575 5573 5571 5570 5570 5570 5569 5569 5570 5571 5572 5573 5576 5578 5579 5578 5574 5570 5572 5572 5574 5577 5584 5578 5579 5577
5662 5656 5645 5632 5623 5614 5607 5601 5598 5593 5588 5585 5581 5579 5577 5572 5569 5567 5566 5565 5563 5561 5560 5560 5560 5560 5561 5562 5563 5565 5566 5567 5567 5567 5563 5560 5559 5557 5558 5560 5559 5559 5569
5647 5641 5634 5625 5613 5606 5600 5594 5590 5587 5584 5579 5576 5573 5570 5565 5563 5560 5559 5557 5555 5554 5551 5551 5551 5551 5551 5552 5553 5554 5555 5555 5556 5554 5553 5550 5546 5542 5543 5545 5545 5545 5553
5620 5615 5617 5616 5600 5595 5591 5586 5582 5578 5576 5572 5569 5565 5561 5558 5555 5553 5551 5549 5548 5545 5543 5542 5541 5541 5542 5543 5543 5544 5544 5543 5542 5541 5541 5540 5537 5533 5531 5531 5531 5538 5545
5623 5604 5596 5596 5588 5582 5581 5579 5576 5572 5568 5566 5562 5558 5553 5550 5547 5544 5542 5540 5538 5535 5534 5533 5532 5532 5532 5532 5532 5532 5531 5531 5529 5527 5527 5527 5524 5524 5524 5524 5525 5522 5526
5626 5610 5591 5583 5579 5575 5571 5568 5567 5567 5562 5559 5555 5550 5547 5543 5540 5536 5533 5531 5528 5525 5523 5522 5522 5520 5520 5519 5519 5518 5517 5517 5515 5515 5515 5515 5514 5513 5514 5513 5516 5514 5514
5613 5607 5596 5580 5573 5567 5563 5558 5555 5555 5555 5549 5546 5543 5540 5536 5533 5529 5525 5523 5520 5517 5515 5513 5511 5510 5509 5508 5507 5506 5506 5506 5505 5503 5502 5502 5500 5501 5501 5501 5502 5502 5503
5593 5591 5590 5579 5570 5563 5556 5553 5547 5545 5544 5541 5536 5534 5532 5529 5524 5520 5518 5515 5512 5508 5506 5504 5502 5501 5499 5498 5496 5495 5494 5494 5494 5492 5491 5490 5489 5489 5489 5489 5489 5489 5490
5583 5578 5574 5573 5565 5559 5550 5546 5542 5538 5534 5532 5529 5525 5525 5521 5516 5513 5509 5506 5503 5499 5497 5494 5492 5491 5489 5487 5485 5484 5482 5482 5481 5480 5479 5478 5476 5476 5475 5476 5477 5477 5477
5569 5569 5560 5558 5557 5554 5549 5541 5537 5533 5528 5524 5522 5519 5517 5513 5509 5504 5501 5497 5492 5490 5488 5485 5483 5481 5478 5476 5474 5472 5471 5470 5470 5467 5465 5464 5463 5462 5461 5461 5462 5463 5463
5560 5557 5557 5554 5549 5545 5545 5538 5532 5527 5522 5517 5512 5513 5507 5503 5499 5496 5492 5488 5484 5481 5478 5476 5473 5471 5469 5467 5464 5462 5461 5459 5457 5454 5452 5450 5448 5445 5443 5444 5444 5444 5445
5558 5558 5552 5544 5540 5538 5536 5533 5528 5524 5516 5510 5508 5501 5497 5494 5492 5488 5484 5478 5474 5472 5468 5466 5464 5461 5459 5457 5454 5452 5450 5448 5445 5442 5440 5438 5434 5433 5431 5429 5427 5424 5424
5560 5550 5545 5540 5537 5533 5531 5529 5524 5514 5509 5505 5501 5497 5492 5488 5483 5478 5475 5472 5468 5463 5460 5457 5454 5452 5450 5445 5441 5439 5437 5436 5434 5431 5428 5425 5423 5418 5417 5416 5415 5412 5410
5546 5545 5543 5539 5536 5531 5524 5519 5514 5509 5503 5500 5496 5490 5485 5480 5473 5469 5467 5464 5460 5456 5452 5449 5445 5442 5440 5435 5429 5426 5423 5422 5421 5418 5414 5411 5408 5406 5402 5399 5397 5396 5396
5536 5536 5533 5528 5524 5519 5515 5509 5504 5499 5494 5492 5489 5482 5476 5470 5466 5464 5460 5455 5451 5448 5444 5440 5435 5431 5428 5423 5417 5412 5409 5408 5408 5404 5400 5395 5391 5388 5386 5382 5380 5379 5379
5490 5492 5496 5500 5502 5494 5496 5495 5491 5487 5482 5478 5474 5468 5463 5458 5455 5450 5446 5442 5439 5436 5431 5427 5424 5420 5415 5410 5403 5397 5393 5392 5390 5387 5384 5379 5373 5369 5365 5362 5360 5361 5359
5465 5468 5468 5466 5465 5469 5474 5475 5472 5469 5465 5460 5455 5451 5447 5444 5440 5434 5430 5426 5422 5419 5416 5413 5409 5405 5401 5395 5390 5381 5377 5375 5372 5369 5366 5362 5358 5352 5345 5340 5338 5337 5333
5447 5448 5447 5444 5442 5447 5453 5452 5446 5437 5436 5435 5432 5428 5426 5425 5422 5418 5414 5410 5406 5402 5398 5394 5388 5385 5381 5376 5372 5365 5360 5355 5351 5349 5346 5343 5338 5335 5329 5322 5318 5314 5310
5423 5424 5426 5425 5422 5421 5424 5429 5416 5413 5412 5410 5407 5405 5402 5398 5393 5391 5391 5388 5385 5383 5378 5375 5370 5365 5361 5356 5351 5346 5340 5334 5326 5325 5325 5321 5317 5312 5308 5303 5298 5294 5290
5396 5397 5401 5403 5401 5398 5396 5394 5392 5391 5389 5385 5382 5379 5378 5373 5370 5365 5363 5363 5360 5356 5354 5349 5346 5340 5335 5329 5323 5317 5312 5307 5304 5301 5300 5298 5294 5292 5288 5282 5278 5272 5269
5367 5368 5370 5371 5369 5369 5368 5366 5365 5366 5365 5362 5358 5355 5354 5349 5345 5344 5342 5339 5336 5333 5330 5325 5320 5316 5308 5304 5300 5293 5286 5281 5274 5269 5268 5268 5267 5265 5261 5258 5255 5252 5245
5341 5341 5341 5340 5338 5340 5339 5339 5339 5338 5335 5334 5336 5333 5326 5323 5320 5315 5311 5310 5306 5303 5298 5294 5290 5285 5280 5275 5273 5267 5263 5258 5251 5245 5243 5242 5238 5237 5234 5230 5230 5226 5225